When you browse on this site, cookies collect data to enhance your experience and personalize the content and advertising you see.
Visit our Privacy Policy to learn more. By continuing to use the site, you agree to this use of cookies and data.
  • Em Portugal
  • Lista de países
  • Para 7 dias
  • Temperatura da água
  • Mapas de satélite
  • Mapa do tempo
  • Widgets de tempo
  • user-avatar
    Iniciar Sessão

    Previsão horária em Kamennyy Ovrag

    Hoje, 20 Fevereiro, Quarta-feira

    Tempo Temperatura Precipitação Vento Pressão Humidade
    00:00 -14°C° 0 mm 2 m/s 752 mmHg 88%
    01:00 -14°C° 0 mm 2 m/s 752 mmHg 90%
    02:00 -14°C° 0 mm 2 m/s 752 mmHg 92%
    03:00 -14°C° 0 mm 2 m/s 751 mmHg 95%
    04:00 -13°C° 0 mm 2 m/s 751 mmHg 95%
    05:00 -13°C° 0 mm 2 m/s 752 mmHg 96%
    06:00 -12°C° 0 mm 2 m/s 752 mmHg 96%
    07:00 -12°C° 0 mm 3 m/s 752 mmHg 96%
    08:00 -10°C° 0 mm 3 m/s 752 mmHg 95%
    09:00 -10°C° 0 mm 3 m/s 751 mmHg 95%
    10:00 -10°C° 0 mm 4 m/s 751 mmHg 95%
    11:00 -10°C° 0 mm 5 m/s 751 mmHg 94%
    12:00 -10°C° 0 mm 5 m/s 750 mmHg 94%
    13:00 -8°C° 0 mm 5 m/s 750 mmHg 93%
    14:00 -8°C° 0 mm 5 m/s 750 mmHg 92%
    15:00 -9°C° 0 mm 6 m/s 750 mmHg 91%
    16:00 -8°C° 0 mm 5 m/s 749 mmHg 91%
    17:00 -10°C° 0 mm 5 m/s 749 mmHg 91%
    18:00 -11°C° 0 mm 5 m/s 749 mmHg 92%
    19:00 -8°C° 0 mm 5 m/s 749 mmHg 91%
    20:00 -7°C° 0 mm 5 m/s 749 mmHg 90%
    21:00 -6°C° 0 mm 6 m/s 748 mmHg 90%
    22:00 -6°C° 0 mm 6 m/s 748 mmHg 90%
    23:00 -6°C° 0 mm 6 m/s 748 mmHg 91%

    Amanhã, 21 Fevereiro, Quinta-feira

    Tempo Temperatura Precipitação Vento Pressão Humidade
    00:00 -6°C° 0 mm 6 m/s 748 mmHg 91%
    01:00 -6°C° 0 mm 6 m/s 748 mmHg 91%
    02:00 -6°C° 0 mm 6 m/s 748 mmHg 92%
    03:00 -6°C° 0 mm 6 m/s 748 mmHg 92%
    04:00 -6°C° 0.1 mm 6 m/s 748 mmHg 92%
    05:00 -8°C° 0.1 mm 6 m/s 747 mmHg 92%
    06:00 -8°C° 0.1 mm 6 m/s 747 mmHg 93%
    07:00 -8°C° 0.1 mm 6 m/s 747 mmHg 93%
    08:00 -6°C° 0.1 mm 6 m/s 747 mmHg 93%
    09:00 -6°C° 0.1 mm 6 m/s 747 mmHg 93%
    10:00 -6°C° 0.2 mm 6 m/s 747 mmHg 93%
    11:00 -5°C° 0.2 mm 6 m/s 747 mmHg 93%
    12:00 -5°C° 0.2 mm 6 m/s 747 mmHg 93%
    13:00 -5°C° 0.3 mm 6 m/s 747 mmHg 92%
    14:00 -4°C° 0.3 mm 6 m/s 747 mmHg 92%
    15:00 -4°C° 0.3 mm 6 m/s 747 mmHg 91%
    16:00 -4°C° 0.2 mm 6 m/s 747 mmHg 91%
    17:00 -4°C° 0.2 mm 6 m/s 747 mmHg 91%
    18:00 -4°C° 0.2 mm 6 m/s 746 mmHg 91%
    19:00 -4°C° 0.1 mm 6 m/s 746 mmHg 91%
    20:00 -4°C° 0.1 mm 6 m/s 746 mmHg 91%
    21:00 -4°C° 0.1 mm 5 m/s 746 mmHg 92%
    22:00 -4°C° 0.1 mm 5 m/s 746 mmHg 92%
    23:00 -2°C° 0.1 mm 5 m/s 745 mmHg 92%

    Depois de amanhã, 22 Fevereiro, Sexta-feira

    Tempo Temperatura Precipitação Vento Pressão Humidade
    00:00 -2°C° 0.1 mm 5 m/s 745 mmHg 92%
    01:00 -2°C° 0.3 mm 5 m/s 745 mmHg 93%
    02:00 -2°C° 0.3 mm 5 m/s 744 mmHg 93%
    03:00 -2°C° 0.3 mm 4 m/s 744 mmHg 94%
    04:00 -2°C° 0.7 mm 4 m/s 743 mmHg 94%
    05:00 -2°C° 0.7 mm 4 m/s 743 mmHg 94%
    06:00 -1°C° 0.7 mm 4 m/s 743 mmHg 94%
    07:00 -1°C° 0.2 mm 4 m/s 742 mmHg 95%
    08:00 -1°C° 0.2 mm 4 m/s 742 mmHg 95%
    09:00 0°C° 0.2 mm 3 m/s 742 mmHg 96%
    10:00 -2°C° 0.6 mm 4 m/s 742 mmHg 95%
    11:00 -2°C° 0.6 mm 5 m/s 742 mmHg 95%
    12:00 -2°C° 0.6 mm 5 m/s 742 mmHg 94%
    13:00 -3°C° 0.6 mm 7 m/s 742 mmHg 93%
    14:00 -5°C° 0.6 mm 8 m/s 743 mmHg 92%
    15:00 -6°C° 0.6 mm 9 m/s 743 mmHg 91%
    16:00 -7°C° 0.3 mm 8 m/s 744 mmHg 91%
    17:00 -8°C° 0.3 mm 8 m/s 744 mmHg 91%
    18:00 -9°C° 0.3 mm 7 m/s 745 mmHg 91%
    19:00 -9°C° 0.5 mm 7 m/s 745 mmHg 91%
    20:00 -9°C° 0.5 mm 7 m/s 746 mmHg 91%
    21:00 -9°C° 0.5 mm 7 m/s 747 mmHg 91%
    22:00 -11°C° 0.3 mm 7 m/s 747 mmHg 91%
    23:00 -11°C° 0.3 mm 7 m/s 748 mmHg 91%

    23 Fevereiro, Sábado

    Tempo Temperatura Precipitação Vento Pressão Humidade
    00:00 -12°C° 0.3 mm 7 m/s 748 mmHg 91%
    01:00 -12°C° 0 mm 6 m/s 749 mmHg 91%
    02:00 -14°C° 0 mm 6 m/s 750 mmHg 91%
    03:00 -15°C° 0 mm 6 m/s 751 mmHg 92%
    04:00 -15°C° 0 mm 6 m/s 752 mmHg 92%
    05:00 -15°C° 0 mm 5 m/s 752 mmHg 93%
    06:00 -15°C° 0 mm 5 m/s 753 mmHg 93%
    07:00 -15°C° 0 mm 5 m/s 754 mmHg 93%
    08:00 -14°C° 0 mm 5 m/s 755 mmHg 93%
    09:00 -14°C° 0 mm 5 m/s 756 mmHg 93%
    10:00 -13°C° 0 mm 5 m/s 757 mmHg 93%
    11:00 -12°C° 0 mm 5 m/s 757 mmHg 93%
    12:00 -12°C° 0 mm 5 m/s 758 mmHg 92%
    13:00 -11°C° 0 mm 5 m/s 758 mmHg 91%
    14:00 -11°C° 0 mm 5 m/s 759 mmHg 91%
    15:00 -11°C° 0 mm 5 m/s 759 mmHg 90%
    16:00 -10°C° 0 mm 4 m/s 759 mmHg 91%
    17:00 -10°C° 0 mm 4 m/s 760 mmHg 92%
    18:00 -11°C° 0 mm 4 m/s 760 mmHg 93%
    19:00 -11°C° 0 mm 4 m/s 761 mmHg 93%
    20:00 -12°C° 0 mm 4 m/s 761 mmHg 94%
    21:00 -14°C° 0 mm 4 m/s 762 mmHg 95%
    22:00 -13°C° 0 mm 3 m/s 762 mmHg 95%
    23:00 -13°C° 0 mm 3 m/s 762 mmHg 95%

    24 Fevereiro, Domingo

    Tempo Temperatura Precipitação Vento Pressão Humidade
    00:00 -14°C° 0 mm 3 m/s 762 mmHg 96%
    01:00 -14°C° 0 mm 3 m/s 763 mmHg 96%
    02:00 -12°C° 0 mm 2 m/s 763 mmHg 96%
    03:00 -12°C° 0 mm 2 m/s 763 mmHg 97%
    04:00 -12°C° 0 mm 2 m/s 763 mmHg 97%
    05:00 -12°C° 0 mm 2 m/s 764 mmHg 97%
    06:00 -12°C° 0 mm 2 m/s 764 mmHg 97%
    07:00 -12°C° 0 mm 2 m/s 764 mmHg 96%
    08:00 -9°C° 0 mm 1 m/s 764 mmHg 96%
    09:00 -9°C° 0 mm 1 m/s 764 mmHg 96%
    10:00 -9°C° 0 mm 1 m/s 764 mmHg 95%
    11:00 -9°C° 0 mm 2 m/s 764 mmHg 94%
    12:00 -9°C° 0 mm 2 m/s 764 mmHg 93%
    13:00 -9°C° 0 mm 2 m/s 764 mmHg 92%
    14:00 -9°C° 0 mm 2 m/s 764 mmHg 92%
    15:00 -8°C° 0 mm 2 m/s 764 mmHg 91%
    16:00 -10°C° 0 mm 2 m/s 764 mmHg 93%
    17:00 -12°C° 0 mm 2 m/s 764 mmHg 94%
    18:00 -13°C° 0 mm 2 m/s 764 mmHg 95%
    19:00 -14°C° 0 mm 2 m/s 764 mmHg 95%
    20:00 -13°C° 0 mm 1 m/s 763 mmHg 96%
    21:00 -13°C° 0 mm 1 m/s 763 mmHg 96%
    22:00 -14°C° 0 mm 1 m/s 763 mmHg 96%
    23:00 -14°C° 0 mm 1 m/s 763 mmHg 96%

    25 Fevereiro, Segunda-feira

    Tempo Temperatura Precipitação Vento Pressão Humidade
    00:00 -15°C° 0 mm 1 m/s 763 mmHg 97%
    01:00 -15°C° 0 mm 1 m/s 762 mmHg 97%
    02:00 -15°C° 0 mm 1 m/s 762 mmHg 97%
    03:00 -15°C° 0 mm 1 m/s 762 mmHg 97%
    04:00 -17°C° 0 mm 2 m/s 761 mmHg 97%
    05:00 -17°C° 0 mm 2 m/s 761 mmHg 97%
    06:00 -16°C° 0 mm 2 m/s 761 mmHg 97%
    07:00 -16°C° 0 mm 2 m/s 760 mmHg 97%
    08:00 -15°C° 0 mm 2 m/s 760 mmHg 97%
    09:00 -16°C° 0 mm 3 m/s 760 mmHg 96%
    10:00 -15°C° 0 mm 3 m/s 760 mmHg 95%
    11:00 -14°C° 0 mm 3 m/s 759 mmHg 94%
    12:00 -13°C° 0 mm 3 m/s 759 mmHg 93%
    13:00 -13°C° 0 mm 3 m/s 758 mmHg 93%
    14:00 -12°C° 0 mm 3 m/s 757 mmHg 92%
    15:00 -12°C° 0 mm 3 m/s 757 mmHg 92%
    16:00 -13°C° 0 mm 3 m/s 756 mmHg 93%
    17:00 -14°C° 0 mm 3 m/s 756 mmHg 93%
    18:00 -15°C° 0 mm 3 m/s 755 mmHg 94%
    19:00 -15°C° 0 mm 3 m/s 755 mmHg 94%
    20:00 -14°C° 0 mm 3 m/s 755 mmHg 94%
    21:00 -14°C° 0 mm 3 m/s 754 mmHg 94%
    22:00 -14°C° 0 mm 3 m/s 754 mmHg 95%
    23:00 -13°C° 0 mm 3 m/s 754 mmHg 95%
    Mostrar mais